Saint Bonnet de Bellac- Haute Vienne - France
Donnes mto: mardi, 07/08/2012
Date Horaire Temp. E. Hum. E. P.atmo. Pluie Vent Direction Direction Ensoleilleme Solaire P. de rose Temp au vent Rafales
07/08/2012 00:00 13,5 C 83 % 1021,4 hPa 0,0 mm 0,0 km/h (0 Bft) S-SO 202 0 min 0 W/m 10,7 C 13,5 C 0,0 km/h (0 Bft)
07/08/2012 00:10 13,4 C 84 % 1021,4 hPa 0,0 mm 0,0 km/h (0 Bft) S-SO 202 0 min 0 W/m 10,8 C 13,4 C 0,0 km/h (0 Bft)
07/08/2012 00:20 13,3 C 85 % 1021,5 hPa 0,0 mm 0,0 km/h (0 Bft) SO 225 0 min 0 W/m 10,8 C 13,3 C 0,0 km/h (0 Bft)
07/08/2012 00:30 13,2 C 85 % 1021,6 hPa 0,0 mm 0,0 km/h (0 Bft) S-SO 202 0 min 0 W/m 10,7 C 13,2 C 0,0 km/h (0 Bft)
07/08/2012 00:40 13,1 C 86 % 1021,6 hPa 0,0 mm 0,0 km/h (0 Bft) S-SO 202 0 min 0 W/m 10,8 C 13,1 C 0,0 km/h (0 Bft)
07/08/2012 00:50 12,9 C 86 % 1021,6 hPa 0,0 mm 0,0 km/h (0 Bft) SO 225 0 min 0 W/m 10,6 C 12,9 C 0,0 km/h (0 Bft)
07/08/2012 01:00 12,8 C 87 % 1021,8 hPa 0,0 mm 2,2 km/h (1 Bft) S-SO 202 0 min 0 W/m 10,7 C 12,8 C 4,3 km/h (1 Bft)
07/08/2012 01:10 12,8 C 87 % 1021,9 hPa 0,0 mm 0,0 km/h (0 Bft) SO 225 0 min 0 W/m 10,7 C 12,8 C 0,0 km/h (0 Bft)
07/08/2012 01:20 12,6 C 87 % 1021,9 hPa 0,0 mm 0,0 km/h (0 Bft) S-SO 202 0 min 0 W/m 10,5 C 12,6 C 1,8 km/h (1 Bft)
07/08/2012 01:30 12,6 C 87 % 1022,1 hPa 0,0 mm 0,4 km/h (0 Bft) SO 225 0 min 0 W/m 10,5 C 12,6 C 3,2 km/h (1 Bft)
07/08/2012 01:40 12,5 C 88 % 1022,1 hPa 0,0 mm 0,0 km/h (0 Bft) S-SO 202 0 min 0 W/m 10,6 C 12,5 C 0,0 km/h (0 Bft)
07/08/2012 01:50 12,4 C 88 % 1022,2 hPa 0,0 mm 0,0 km/h (0 Bft) O-SO 247 0 min 0 W/m 10,5 C 12,4 C 0,0 km/h (0 Bft)
07/08/2012 02:00 12,3 C 88 % 1022,2 hPa 0,0 mm 0,0 km/h (0 Bft) O-SO 247 0 min 0 W/m 10,4 C 12,3 C 0,0 km/h (0 Bft)
07/08/2012 02:10 12,3 C 89 % 1022,2 hPa 0,0 mm 0,7 km/h (0 Bft) S-SO 202 0 min 0 W/m 10,5 C 12,3 C 3,6 km/h (1 Bft)
07/08/2012 02:20 12,3 C 89 % 1022,2 hPa 0,0 mm 0,0 km/h (0 Bft) S-SO 202 0 min 0 W/m 10,5 C 12,3 C 3,6 km/h (1 Bft)
07/08/2012 02:30 12,2 C 89 % 1022,2 hPa 0,0 mm 0,0 km/h (0 Bft) N 360 0 min 0 W/m 10,4 C 12,2 C 0,0 km/h (0 Bft)
07/08/2012 02:40 12,1 C 89 % 1022,2 hPa 0,0 mm 0,7 km/h (0 Bft) S-SO 202 0 min 0 W/m 10,3 C 12,1 C 0,7 km/h (0 Bft)
07/08/2012 02:50 12,0 C 89 % 1022,2 hPa 0,0 mm 0,7 km/h (0 Bft) N 360 0 min 0 W/m 10,2 C 12,0 C 0,7 km/h (0 Bft)
07/08/2012 03:02 12,1 C 89 % 1022,3 hPa 0,0 mm 0,0 km/h (0 Bft) S-SO 202 0 min 0 W/m 10,3 C 12,1 C 3,2 km/h (1 Bft)
07/08/2012 03:10 12,1 C 90 % 1022,2 hPa 0,0 mm 0,0 km/h (0 Bft) S-SO 202 0 min 0 W/m 10,5 C 12,1 C 0,0 km/h (0 Bft)
07/08/2012 03:20 12,0 C 90 % 1022,2 hPa 0,0 mm 0,0 km/h (0 Bft) SO 225 0 min 0 W/m 10,4 C 12,0 C 0,0 km/h (0 Bft)
07/08/2012 03:30 11,9 C 90 % 1022,2 hPa 0,0 mm 0,0 km/h (0 Bft) S-SO 202 0 min 0 W/m 10,3 C 11,9 C 0,0 km/h (0 Bft)
07/08/2012 03:40 11,8 C 90 % 1022,1 hPa 0,0 mm 0,0 km/h (0 Bft) S-SO 202 0 min 0 W/m 10,2 C 11,8 C 0,0 km/h (0 Bft)
07/08/2012 03:50 11,7 C 90 % 1022,1 hPa 0,0 mm 0,4 km/h (0 Bft) S-SO 202 0 min 0 W/m 10,1 C 11,7 C 2,9 km/h (1 Bft)
07/08/2012 04:00 11,6 C 90 % 1022,0 hPa 0,0 mm 0,7 km/h (0 Bft) S-SO 202 0 min 0 W/m 10,0 C 11,6 C 3,6 km/h (1 Bft)
07/08/2012 04:10 11,6 C 90 % 1022,0 hPa 0,0 mm 0,4 km/h (0 Bft) S-SO 202 0 min 0 W/m 10,0 C 11,6 C 0,4 km/h (0 Bft)
07/08/2012 04:20 11,7 C 91 % 1022,0 hPa 0,0 mm 0,0 km/h (0 Bft) S-SO 202 0 min 0 W/m 10,3 C 11,7 C 0,0 km/h (0 Bft)
07/08/2012 04:30 11,6 C 91 % 1022,1 hPa 0,0 mm 0,0 km/h (0 Bft) S-SO 202 0 min 0 W/m 10,2 C 11,6 C 0,0 km/h (0 Bft)
07/08/2012 04:40 11,6 C 91 % 1022,1 hPa 0,0 mm 0,0 km/h (0 Bft) S 180 0 min 0 W/m 10,2 C 11,6 C 0,0 km/h (0 Bft)
07/08/2012 04:50 11,5 C 91 % 1022,1 hPa 0,0 mm 0,0 km/h (0 Bft) S-SO 202 0 min 0 W/m 10,1 C 11,5 C 0,0 km/h (0 Bft)
07/08/2012 05:00 11,4 C 91 % 1022,1 hPa 0,0 mm 0,0 km/h (0 Bft) S-SO 202 0 min 0 W/m 10,0 C 11,4 C 0,0 km/h (0 Bft)
07/08/2012 05:10 11,2 C 90 % 1022,0 hPa 0,0 mm 0,0 km/h (0 Bft) S-SO 202 0 min 0 W/m 9,6 C 11,2 C 0,0 km/h (0 Bft)
07/08/2012 05:20 11,2 C 90 % 1022,2 hPa 0,0 mm 0,0 km/h (0 Bft) S-SO 202 0 min 0 W/m 9,6 C 11,2 C 0,0 km/h (0 Bft)
07/08/2012 05:30 11,1 C 90 % 1022,2 hPa 0,0 mm 0,0 km/h (0 Bft) S-SO 202 0 min 0 W/m 9,5 C 11,1 C 0,0 km/h (0 Bft)
07/08/2012 05:40 11,1 C 90 % 1022,1 hPa 0,0 mm 0,0 km/h (0 Bft) S 180 0 min 0 W/m 9,5 C 11,1 C 0,0 km/h (0 Bft)
07/08/2012 05:50 10,9 C 90 % 1022,2 hPa 0,0 mm 0,0 km/h (0 Bft) E 90 0 min 0 W/m 9,3 C 10,9 C 0,0 km/h (0 Bft)
07/08/2012 06:00 10,8 C 90 % 1022,3 hPa 0,0 mm 0,0 km/h (0 Bft) E 90 0 min 0 W/m 9,2 C 10,8 C 0,0 km/h (0 Bft)
07/08/2012 06:10 10,6 C 90 % 1022,2 hPa 0,0 mm 0,0 km/h (0 Bft) E 90 0 min 0 W/m 9,0 C 10,6 C 0,0 km/h (0 Bft)
07/08/2012 06:20 10,4 C 90 % 1022,3 hPa 0,0 mm 0,0 km/h (0 Bft) E 90 0 min 0 W/m 8,8 C 10,4 C 0,0 km/h (0 Bft)
07/08/2012 06:30 10,3 C 90 % 1022,4 hPa 0,0 mm 0,7 km/h (0 Bft) E 90 0 min 0 W/m 8,7 C 10,3 C 3,6 km/h (1 Bft)
07/08/2012 06:40 10,1 C 90 % 1022,5 hPa 0,0 mm 0,0 km/h (0 Bft) E 90 0 min 0 W/m 8,5 C 10,1 C 0,0 km/h (0 Bft)
07/08/2012 06:50 10,1 C 90 % 1022,6 hPa 0,0 mm 1,8 km/h (1 Bft) E 90 0 min 0 W/m 8,5 C 10,1 C 3,6 km/h (1 Bft)
07/08/2012 07:00 10,1 C 91 % 1022,7 hPa 0,0 mm 0,0 km/h (0 Bft) E-SE 112 0 min 0 W/m 8,7 C 10,1 C 0,0 km/h (0 Bft)
07/08/2012 07:10 10,1 C 91 % 1022,7 hPa 0,0 mm 3,2 km/h (1 Bft) E-SE 112 0 min 0 W/m 8,7 C 10,1 C 3,6 km/h (1 Bft)
07/08/2012 07:20 10,2 C 91 % 1022,8 hPa 0,0 mm 3,2 km/h (1 Bft) E-SE 112 0 min 0 W/m 8,8 C 10,2 C 4,0 km/h (1 Bft)
07/08/2012 07:30 10,3 C 91 % 1022,9 hPa 0,0 mm 0,0 km/h (0 Bft) E-SE 112 0 min 0 W/m 8,9 C 10,3 C 0,0 km/h (0 Bft)
07/08/2012 07:40 10,4 C 91 % 1022,9 hPa 0,0 mm 0,0 km/h (0 Bft) E-SE 112 0 min 0 W/m 9,0 C 10,4 C 0,0 km/h (0 Bft)
07/08/2012 07:50 10,4 C 91 % 1023,0 hPa 0,0 mm 0,0 km/h (0 Bft) E-SE 112 0 min 0 W/m 9,0 C 10,4 C 0,0 km/h (0 Bft)
07/08/2012 08:00 10,6 C 91 % 1023,0 hPa 0,0 mm 0,0 km/h (0 Bft) E-SE 112 0 min 0 W/m 9,2 C 10,6 C 0,0 km/h (0 Bft)
07/08/2012 08:10 10,9 C 92 % 1023,0 hPa 0,0 mm 0,0 km/h (0 Bft) E-SE 112 0 min 0 W/m 9,7 C 10,9 C 0,0 km/h (0 Bft)
07/08/2012 08:20 11,1 C 92 % 1023,1 hPa 0,0 mm 0,0 km/h (0 Bft) E-SE 112 0 min 0 W/m 9,8 C 11,1 C 0,0 km/h (0 Bft)
07/08/2012 08:30 11,5 C 92 % 1023,2 hPa 0,0 mm 0,0 km/h (0 Bft) E-SE 112 0 min 0 W/m 10,2 C 11,5 C 0,0 km/h (0 Bft)
07/08/2012 08:40 11,9 C 92 % 1023,3 hPa 0,0 mm 0,0 km/h (0 Bft) E-SE 112 0 min 0 W/m 10,6 C 11,9 C 0,0 km/h (0 Bft)
07/08/2012 08:50 12,2 C 92 % 1023,3 hPa 0,0 mm 0,4 km/h (0 Bft) E 90 0 min 0 W/m 10,9 C 12,2 C 0,4 km/h (0 Bft)
07/08/2012 09:00 12,6 C 92 % 1023,4 hPa 0,0 mm 0,7 km/h (0 Bft) E 90 0 min 0 W/m 11,3 C 12,6 C 3,6 km/h (1 Bft)
07/08/2012 09:10 13,2 C 92 % 1023,5 hPa 0,0 mm 0,0 km/h (0 Bft) S-SE 157 0 min 0 W/m 11,9 C 13,2 C 0,0 km/h (0 Bft)
07/08/2012 09:20 13,8 C 93 % 1023,5 hPa 0,0 mm 0,0 km/h (0 Bft) S-SO 202 0 min 0 W/m 12,7 C 13,8 C 0,0 km/h (0 Bft)
07/08/2012 09:30 14,6 C 93 % 1023,6 hPa 0,0 mm 0,4 km/h (0 Bft) SO 225 0 min 0 W/m 13,5 C 14,6 C 0,4 km/h (0 Bft)
07/08/2012 09:40 15,3 C 93 % 1023,6 hPa 0,0 mm 1,4 km/h (1 Bft) SO 225 0 min 0 W/m 14,2 C 15,3 C 4,0 km/h (1 Bft)
07/08/2012 09:50 15,9 C 92 % 1023,6 hPa 0,0 mm 1,1 km/h (1 Bft) O-SO 247 0 min 0 W/m 14,6 C 15,9 C 4,0 km/h (1 Bft)
07/08/2012 10:00 16,8 C 89 % 1023,6 hPa 0,0 mm 4,7 km/h (1 Bft) SO 225 0 min 0 W/m 15,0 C 16,8 C 9,4 km/h (2 Bft)
07/08/2012 10:10 17,6 C 86 % 1023,7 hPa 0,0 mm 0,4 km/h (0 Bft) S-SO 202 0 min 0 W/m 15,2 C 17,6 C 3,6 km/h (1 Bft)
07/08/2012 10:20 18,0 C 82 % 1023,7 hPa 0,0 mm 2,5 km/h (1 Bft) S-SO 202 0 min 0 W/m 14,9 C 18,0 C 4,3 km/h (1 Bft)
07/08/2012 10:30 18,6 C 81 % 1023,8 hPa 0,0 mm 1,1 km/h (1 Bft) SO 225 0 min 0 W/m 15,3 C 18,6 C 4,3 km/h (1 Bft)
07/08/2012 10:40 19,5 C 76 % 1023,7 hPa 0,0 mm 1,8 km/h (1 Bft) SO 225 0 min 0 W/m 15,2 C 19,5 C 4,0 km/h (1 Bft)
07/08/2012 10:50 20,3 C 74 % 1023,8 hPa 0,0 mm 2,2 km/h (1 Bft) SO 225 0 min 0 W/m 15,5 C 20,3 C 4,0 km/h (1 Bft)
07/08/2012 11:00 20,5 C 71 % 1023,8 hPa 0,0 mm 0,4 km/h (0 Bft) SO 225 0 min 0 W/m 15,1 C 20,5 C 0,4 km/h (0 Bft)
07/08/2012 11:10 21,2 C 69 % 1024,0 hPa 0,0 mm 0,4 km/h (0 Bft) SO 225 0 min 0 W/m 15,3 C 21,2 C 4,0 km/h (1 Bft)
07/08/2012 11:20 21,4 C 68 % 1024,0 hPa 0,0 mm 0,7 km/h (0 Bft) SO 225 0 min 0 W/m 15,2 C 21,4 C 0,7 km/h (0 Bft)
07/08/2012 11:30 21,3 C 65 % 1024,0 hPa 0,0 mm 3,2 km/h (1 Bft) S-SO 202 0 min 0 W/m 14,4 C 21,3 C 4,0 km/h (1 Bft)
07/08/2012 11:40 21,4 C 66 % 1024,1 hPa 0,0 mm 1,1 km/h (1 Bft) N-NO 337 0 min 0 W/m 14,8 C 21,4 C 3,6 km/h (1 Bft)
07/08/2012 11:50 21,6 C 64 % 1024,0 hPa 0,0 mm 0,0 km/h (0 Bft) O-SO 247 0 min 0 W/m 14,5 C 21,6 C 0,0 km/h (0 Bft)
07/08/2012 12:00 21,8 C 64 % 1024,1 hPa 0,0 mm 1,8 km/h (1 Bft) NO 315 0 min 0 W/m 14,7 C 21,8 C 6,5 km/h (2 Bft)
07/08/2012 12:10 22,3 C 60 % 1024,0 hPa 0,0 mm 0,0 km/h (0 Bft) O-SO 247 0 min 0 W/m 14,2 C 22,3 C 3,2 km/h (1 Bft)
07/08/2012 12:20 22,8 C 59 % 1024,0 hPa 0,0 mm 0,0 km/h (0 Bft) SO 225 0 min 0 W/m 14,4 C 22,8 C 0,0 km/h (0 Bft)
07/08/2012 12:30 23,2 C 57 % 1024,0 hPa 0,0 mm 3,6 km/h (1 Bft) S 180 0 min 0 W/m 14,2 C 23,2 C 7,2 km/h (2 Bft)
07/08/2012 12:40 23,1 C 57 % 1023,9 hPa 0,0 mm 0,4 km/h (0 Bft) SO 225 0 min 0 W/m 14,1 C 23,1 C 3,6 km/h (1 Bft)
07/08/2012 12:50 22,7 C 57 % 1023,8 hPa 0,0 mm 0,7 km/h (0 Bft) O-SO 247 0 min 0 W/m 13,7 C 22,7 C 0,7 km/h (0 Bft)
07/08/2012 13:00 22,8 C 57 % 1023,8 hPa 0,0 mm 0,0 km/h (0 Bft) S 180 0 min 0 W/m 13,8 C 22,8 C 0,0 km/h (0 Bft)
07/08/2012 13:10 23,5 C 56 % 1023,7 hPa 0,0 mm 1,4 km/h (1 Bft) SO 225 0 min 0 W/m 14,2 C 23,5 C 4,0 km/h (1 Bft)
07/08/2012 13:20 24,0 C 54 % 1023,7 hPa 0,0 mm 1,8 km/h (1 Bft) SO 225 0 min 0 W/m 14,1 C 24,0 C 2,9 km/h (1 Bft)
07/08/2012 13:30 24,4 C 54 % 1023,7 hPa 0,0 mm 1,8 km/h (1 Bft) SE 135 0 min 0 W/m 14,5 C 24,4 C 4,3 km/h (1 Bft)
07/08/2012 13:40 24,9 C 53 % 1023,7 hPa 0,0 mm 3,6 km/h (1 Bft) N-NE 22 0 min 0 W/m 14,6 C 24,9 C 6,8 km/h (2 Bft)
07/08/2012 13:50 25,1 C 53 % 1023,5 hPa 0,0 mm 0,4 km/h (0 Bft) SO 225 0 min 0 W/m 14,8 C 25,1 C 2,9 km/h (1 Bft)
07/08/2012 14:00 25,6 C 51 % 1023,6 hPa 0,0 mm 0,0 km/h (0 Bft) S-SE 157 0 min 0 W/m 14,7 C 25,6 C 0,0 km/h (0 Bft)
07/08/2012 14:10 25,9 C 51 % 1023,5 hPa 0,0 mm 0,4 km/h (0 Bft) S-SE 157 0 min 0 W/m 15,0 C 25,9 C 3,2 km/h (1 Bft)
07/08/2012 14:20 26,5 C 49 % 1023,6 hPa 0,0 mm 1,8 km/h (1 Bft) NO 315 0 min 0 W/m 14,9 C 26,5 C 4,3 km/h (1 Bft)
07/08/2012 14:30 26,6 C 47 % 1023,5 hPa 0,0 mm 1,1 km/h (1 Bft) S 180 0 min 0 W/m 14,3 C 26,6 C 3,6 km/h (1 Bft)
07/08/2012 14:40 26,2 C 47 % 1023,5 hPa 0,0 mm 0,4 km/h (0 Bft) S-SO 202 0 min 0 W/m 14,0 C 26,2 C 4,3 km/h (1 Bft)
07/08/2012 14:50 26,0 C 47 % 1023,4 hPa 0,0 mm 0,7 km/h (0 Bft) O-SO 247 0 min 0 W/m 13,8 C 26,0 C 3,6 km/h (1 Bft)
07/08/2012 15:00 25,8 C 47 % 1023,4 hPa 0,0 mm 1,1 km/h (1 Bft) S-SO 202 0 min 0 W/m 13,6 C 25,8 C 4,0 km/h (1 Bft)
07/08/2012 15:10 25,8 C 48 % 1023,4 hPa 0,0 mm 2,5 km/h (1 Bft) NO 315 0 min 0 W/m 13,9 C 25,8 C 6,5 km/h (2 Bft)
07/08/2012 15:20 26,1 C 47 % 1023,5 hPa 0,0 mm 0,0 km/h (0 Bft) NO 315 0 min 0 W/m 13,9 C 26,1 C 0,0 km/h (0 Bft)
07/08/2012 15:30 25,9 C 47 % 1023,5 hPa 0,0 mm 1,1 km/h (1 Bft) SO 225 0 min 0 W/m 13,7 C 25,9 C 6,5 km/h (2 Bft)
07/08/2012 15:40 25,8 C 47 % 1023,4 hPa 0,0 mm 0,0 km/h (0 Bft) S-SO 202 0 min 0 W/m 13,6 C 25,8 C 3,2 km/h (1 Bft)
07/08/2012 15:50 25,8 C 47 % 1023,4 hPa 0,0 mm 4,7 km/h (1 Bft) S-SO 202 0 min 0 W/m 13,6 C 25,8 C 7,2 km/h (2 Bft)
07/08/2012 16:00 25,4 C 47 % 1023,3 hPa 0,0 mm 0,7 km/h (0 Bft) SO 225 0 min 0 W/m 13,3 C 25,4 C 3,2 km/h (1 Bft)
07/08/2012 16:10 25,2 C 47 % 1023,3 hPa 0,0 mm 0,4 km/h (0 Bft) SO 225 0 min 0 W/m 13,1 C 25,2 C 2,9 km/h (1 Bft)
07/08/2012 16:20 25,2 C 48 % 1023,2 hPa 0,0 mm 0,4 km/h (0 Bft) N-NE 22 0 min 0 W/m 13,4 C 25,2 C 3,2 km/h (1 Bft)
07/08/2012 16:30 25,5 C 48 % 1023,2 hPa 0,0 mm 1,4 km/h (1 Bft) E-NE 67 0 min 0 W/m 13,7 C 25,5 C 4,3 km/h (1 Bft)
07/08/2012 16:40 25,8 C 47 % 1023,2 hPa 0,0 mm 1,8 km/h (1 Bft) E 90 0 min 0 W/m 13,6 C 25,8 C 4,3 km/h (1 Bft)
07/08/2012 16:50 26,1 C 47 % 1023,1 hPa 0,0 mm 0,0 km/h (0 Bft) S-SO 202 0 min 0 W/m 13,9 C 26,1 C 0,0 km/h (0 Bft)
07/08/2012 17:00 26,3 C 45 % 1023,1 hPa 0,0 mm 0,4 km/h (0 Bft) O 270 0 min 0 W/m 13,4 C 26,3 C 2,9 km/h (1 Bft)
07/08/2012 17:10 26,6 C 43 % 1023,1 hPa 0,0 mm 0,0 km/h (0 Bft) O 270 0 min 0 W/m 13,0 C 26,6 C 0,0 km/h (0 Bft)
07/08/2012 17:20 26,8 C 43 % 1023,0 hPa 0,0 mm 0,7 km/h (0 Bft) SO 225 0 min 0 W/m 13,2 C 26,8 C 3,6 km/h (1 Bft)
07/08/2012 17:30 26,4 C 45 % 1023,0 hPa 0,0 mm 0,0 km/h (0 Bft) SO 225 0 min 0 W/m 13,5 C 26,4 C 0,0 km/h (0 Bft)
07/08/2012 17:40 26,2 C 45 % 1022,9 hPa 0,0 mm 0,0 km/h (0 Bft) S-SO 202 0 min 0 W/m 13,3 C 26,2 C 0,0 km/h (0 Bft)
07/08/2012 17:50 26,6 C 45 % 1022,8 hPa 0,0 mm 2,2 km/h (1 Bft) N-NE 22 0 min 0 W/m 13,7 C 26,6 C 4,3 km/h (1 Bft)
07/08/2012 18:00 27,3 C 44 % 1022,7 hPa 0,0 mm 4,7 km/h (1 Bft) NO 315 0 min 0 W/m 14,0 C 27,3 C 4,7 km/h (1 Bft)
07/08/2012 18:10 27,7 C 43 % 1022,6 hPa 0,0 mm 0,0 km/h (0 Bft) NO 315 0 min 0 W/m 14,0 C 27,7 C 0,0 km/h (0 Bft)
07/08/2012 18:20 27,9 C 42 % 1022,5 hPa 0,0 mm 0,7 km/h (0 Bft) N-NO 337 0 min 0 W/m 13,8 C 27,9 C 0,7 km/h (0 Bft)
07/08/2012 18:30 27,7 C 41 % 1022,5 hPa 0,0 mm 0,0 km/h (0 Bft) S-SO 202 0 min 0 W/m 13,2 C 27,7 C 0,0 km/h (0 Bft)
07/08/2012 18:40 27,3 C 42 % 1022,4 hPa 0,0 mm 0,0 km/h (0 Bft) S-SO 202 0 min 0 W/m 13,2 C 27,3 C 0,0 km/h (0 Bft)
07/08/2012 18:50 27,5 C 42 % 1022,3 hPa 0,0 mm 0,7 km/h (0 Bft) O-NO 292 0 min 0 W/m 13,4 C 27,5 C 0,7 km/h (0 Bft)
07/08/2012 19:00 27,8 C 42 % 1022,3 hPa 0,0 mm 0,0 km/h (0 Bft) O-NO 292 0 min 0 W/m 13,7 C 27,8 C 2,9 km/h (1 Bft)
07/08/2012 19:10 27,7 C 42 % 1022,3 hPa 0,0 mm 4,0 km/h (1 Bft) NE 45 0 min 0 W/m 13,6 C 27,7 C 4,0 km/h (1 Bft)
07/08/2012 19:20 27,5 C 41 % 1022,2 hPa 0,0 mm 0,7 km/h (0 Bft) N 360 0 min 0 W/m 13,1 C 27,5 C 0,7 km/h (0 Bft)
07/08/2012 19:30 27,5 C 42 % 1022,2 hPa 0,0 mm 3,2 km/h (1 Bft) NE 45 0 min 0 W/m 13,4 C 27,5 C 3,6 km/h (1 Bft)
07/08/2012 19:40 27,4 C 42 % 1022,2 hPa 0,0 mm 0,4 km/h (0 Bft) E-NE 67 0 min 0 W/m 13,3 C 27,4 C 0,4 km/h (0 Bft)
07/08/2012 19:50 27,3 C 42 % 1022,0 hPa 0,0 mm 0,7 km/h (0 Bft) N-NE 22 0 min 0 W/m 13,2 C 27,3 C 4,0 km/h (1 Bft)
07/08/2012 20:00 27,1 C 42 % 1022,1 hPa 0,0 mm 0,0 km/h (0 Bft) N-NE 22 0 min 0 W/m 13,1 C 27,1 C 0,0 km/h (0 Bft)
07/08/2012 20:10 26,9 C 42 % 1022,1 hPa 0,0 mm 0,0 km/h (0 Bft) N-NE 22 0 min 0 W/m 12,9 C 26,9 C 2,9 km/h (1 Bft)
07/08/2012 20:20 26,4 C 43 % 1022,1 hPa 0,0 mm 0,0 km/h (0 Bft) N-NE 22 0 min 0 W/m 12,8 C 26,4 C 0,0 km/h (0 Bft)
07/08/2012 20:30 25,8 C 45 % 1022,0 hPa 0,0 mm 0,0 km/h (0 Bft) N-NE 22 0 min 0 W/m 13,0 C 25,8 C 0,0 km/h (0 Bft)
07/08/2012 20:40 24,9 C 46 % 1022,0 hPa 0,0 mm 0,0 km/h (0 Bft) N-NE 22 0 min 0 W/m 12,5 C 24,9 C 0,0 km/h (0 Bft)
07/08/2012 20:50 23,9 C 47 % 1022,1 hPa 0,0 mm 0,0 km/h (0 Bft) N-NE 22 0 min 0 W/m 11,9 C 23,9 C 0,0 km/h (0 Bft)
07/08/2012 21:00 23,1 C 50 % 1022,2 hPa 0,0 mm 0,0 km/h (0 Bft) N-NE 22 0 min 0 W/m 12,1 C 23,1 C 0,0 km/h (0 Bft)
07/08/2012 21:10 22,2 C 52 % 1022,2 hPa 0,0 mm 0,0 km/h (0 Bft) N-NE 22 0 min 0 W/m 11,9 C 22,2 C 0,0 km/h (0 Bft)
07/08/2012 21:20 21,3 C 53 % 1022,2 hPa 0,0 mm 0,0 km/h (0 Bft) N-NE 22 0 min 0 W/m 11,3 C 21,3 C 0,0 km/h (0 Bft)
07/08/2012 21:30 20,5 C 55 % 1022,3 hPa 0,0 mm 0,0 km/h (0 Bft) N-NE 22 0 min 0 W/m 11,1 C 20,5 C 0,0 km/h (0 Bft)
07/08/2012 21:40 19,8 C 57 % 1022,4 hPa 0,0 mm 0,0 km/h (0 Bft) N-NE 22 0 min 0 W/m 11,0 C 19,8 C 0,0 km/h (0 Bft)
07/08/2012 21:50 19,1 C 59 % 1022,5 hPa 0,0 mm 0,0 km/h (0 Bft) N-NE 22 0 min 0 W/m 10,9 C 19,1 C 0,0 km/h (0 Bft)
07/08/2012 22:00 18,4 C 60 % 1022,6 hPa 0,0 mm 0,0 km/h (0 Bft) N-NE 22 0 min 0 W/m 10,5 C 18,4 C 0,0 km/h (0 Bft)
07/08/2012 22:10 17,8 C 62 % 1022,7 hPa 0,0 mm 0,0 km/h (0 Bft) N-NE 22 0 min 0 W/m 10,4 C 17,8 C 0,0 km/h (0 Bft)
07/08/2012 22:20 17,4 C 63 % 1022,6 hPa 0,0 mm 0,0 km/h (0 Bft) N-NE 22 0 min 0 W/m 10,3 C 17,4 C 0,0 km/h (0 Bft)
07/08/2012 22:30 16,9 C 65 % 1022,7 hPa 0,0 mm 0,0 km/h (0 Bft) N-NE 22 0 min 0 W/m 10,3 C 16,9 C 0,0 km/h (0 Bft)
07/08/2012 22:40 16,5 C 66 % 1022,7 hPa 0,0 mm 0,0 km/h (0 Bft) N-NE 22 0 min 0 W/m 10,1 C 16,5 C 0,0 km/h (0 Bft)
07/08/2012 22:50 16,1 C 67 % 1022,7 hPa 0,0 mm 0,0 km/h (0 Bft) NE 45 0 min 0 W/m 10,0 C 16,1 C 0,0 km/h (0 Bft)
07/08/2012 23:00 15,8 C 68 % 1022,7 hPa 0,0 mm 0,0 km/h (0 Bft) NE 45 0 min 0 W/m 9,9 C 15,8 C 0,0 km/h (0 Bft)
07/08/2012 23:10 15,5 C 69 % 1022,6 hPa 0,0 mm 0,0 km/h (0 Bft) NE 45 0 min 0 W/m 9,8 C 15,5 C 0,0 km/h (0 Bft)
_ Min-Heure 07:10 19:20 00:10 - 23:10 - - - - 06:50 07:10 23:10
Minimum _ 10,1 C 41 % 1021,4 hPa - 0,0 km/h (0 Bft) - - - - 8,5 C 10,1 C 0,0 km/h (0 Bft)
_ Max-Heure 18:20 09:40 12:00 23:10 18:00 - - 23:10 23:10 10:50 18:20 10:00
Maximum _ 27,9 C 93 % 1024,1 hPa 0,0 mm 4,7 km/h
NO (1 Bft)
- - 0 min 0 W/m 15,5 C 27,9 C 9,4 km/h
SO (2 Bft)
Moyenne _ 18,6 C 69 % 1022,8 hPa #0,0 mm 0,6 km/h (0 Bft) S-SO - #0 min. 0 W/m 12,0 C 18,6 C 1,7 km/h (1 Bft)
Saint Bonnet de Bellac- Haute Vienne - France